Location: Cudham
(51.3000°N, 0.0667°E)
Time: 16:17:05
(UTC+00:00)

USA 229 DEB - Pass Details

Date: 26 April 2026
Orbit: 844 x 1364 km, 63.4° (Epoch: 10 January)

Event Time Altitude Azimuth Distance (km) Brightness Sun altitude
Rises 21:56:25 0° 313° (NW) 3,897 8.0 -19.8°
Reaches altitude 10° 21:58:59 10° 316° (NW) 3,009 7.2 -20.0°
Maximum altitude 22:06:16 72° 41° (NE) 1,292 4.1 -20.6°
Enters shadow 22:11:03 27° 120° (ESE) 2,251 4.9 -20.9°
